Temp
39 39 38 37 35 34 33 33 33 33 33 32 32 31 30 29 29 28 27 28 28 28
39 37 36 34 33 33 32 34 32 31 31 30 30 30 29 28 27 26 27 27 27 27
39 37 36 35 33 33 31 32 31 30 30 29 30 29 28 27 27 26 26 26 26 26
35 36 36 35 33 32 32 31 31 30 29 29 28 28 27 27 27 27 26 26 26 26
36 35 33 33 32 31 31 31 31 30 29 29 28 28 27 27 27 26 27 26 26 26
33 33 33 32 31 31 30 30 30 29 29 28 28 28 28 28 27 27 27 27 26 25
33 34 33 32 31 31 31 30 29 28 29 28 28 29 29 28 27 27 27 27 26 25
33 33 32 31 31 30 30 31 30 29 28 29 28 30 28 28 26 25 25 25 26 26
33 32 31 31 30 30 29 28 28 28 27 26 30 34 34 29 26 26 25 24 24 25
33 32 32 31 30 29 28 28 27 26 27 25 25 35 36 35 26 25 24 24 25 25
32 32 30 29 29 29 28 27 27 26 25 24 25 34 36 35 26 24 24 23 23 23
33 31 29 29 29 29 27 25 25 25 22 22 21 33 34 33 24 24 23 24 23 22
33 32 30 31 30 28 27 27 25 24 21 21 19 30 34 33 23 17 21 21 23 25
32 32 32 31 28 24 24 22 19 20 19 18 18 18 32 33 24 22 17 18 19 21
MSLP
1025.89 1026.53 1027.34 1027.96 1028.68 1029.29 1029.74 1030.20 1030.66 1030.86 1030.96 1031.40 1031.81 1032.18 1032.70 1033.32 1033.80 1034.04 1034.14 1034.28 1034.39 1034.69
1025.78 1026.41 1027.16 1028.04 1028.73 1029.23 1029.87 1030.32 1030.87 1031.05 1031.45 1031.88 1032.25 1032.61 1033.02 1033.54 1034.07 1034.19 1034.14 1034.48 1034.57 1035.03
1025.54 1026.19 1026.88 1027.60 1028.38 1029.03 1029.72 1030.20 1030.70 1031.20 1031.67 1032.11 1032.43 1032.79 1033.31 1033.76 1034.03 1034.20 1034.28 1034.61 1034.74 1034.93
1025.30 1025.95 1026.68 1027.45 1028.23 1028.87 1029.54 1030.03 1030.53 1031.01 1031.51 1031.96 1032.37 1032.73 1033.16 1033.59 1033.95 1034.27 1034.37 1034.65 1034.56 1034.56
1025.02 1025.72 1026.54 1027.33 1028.08 1028.78 1029.23 1029.84 1030.30 1031.04 1031.51 1031.99 1032.39 1032.67 1032.92 1033.24 1033.80 1034.31 1034.44 1034.33 1034.31 1034.55
1024.97 1025.59 1026.23 1026.93 1027.72 1028.39 1028.96 1029.65 1030.38 1030.99 1031.41 1031.86 1032.22 1032.53 1032.85 1032.99 1033.47 1034.00 1034.07 1034.03 1034.15 1034.50
1024.64 1025.25 1025.76 1026.44 1027.23 1027.90 1028.57 1029.35 1030.01 1030.55 1031.00 1031.54 1032.07 1032.33 1032.48 1032.66 1033.15 1033.74 1033.73 1033.86 1034.12 1034.09
1024.26 1025.02 1025.80 1026.41 1027.02 1027.82 1028.54 1029.11 1029.68 1030.22 1030.85 1031.34 1031.66 1031.62 1032.11 1032.32 1032.84 1033.45 1033.50 1033.63 1033.61 1033.66
1024.08 1024.84 1025.42 1026.41 1026.93 1027.63 1028.42 1029.02 1029.63 1030.08 1030.57 1031.16 1031.05 1031.20 1031.26 1031.69 1032.68 1033.10 1033.22 1033.33 1033.40 1033.33
1023.58 1024.61 1025.22 1026.08 1026.66 1027.26 1027.92 1028.67 1029.38 1029.95 1030.40 1030.78 1030.85 1030.84 1030.63 1030.96 1032.24 1032.58 1032.85 1032.93 1032.91 1032.83
1023.25 1024.18 1024.91 1025.58 1026.26 1026.90 1027.42 1028.21 1028.96 1029.58 1030.03 1030.61 1030.53 1030.33 1029.95 1030.65 1031.60 1032.14 1032.26 1032.46 1032.61 1032.52
1022.43 1023.45 1024.39 1024.96 1025.69 1026.40 1027.04 1027.91 1028.35 1028.94 1029.60 1029.94 1030.12 1029.73 1029.76 1030.32 1031.16 1031.46 1031.62 1031.80 1031.91 1031.98
1021.72 1022.72 1023.51 1024.07 1024.96 1025.77 1026.38 1026.98 1027.97 1028.59 1028.90 1029.32 1029.84 1029.38 1029.39 1029.78 1030.58 1030.85 1031.09 1031.19 1031.33 1031.31
1021.16 1021.87 1022.64 1023.73 1024.66 1025.37 1026.14 1026.86 1027.52 1028.10 1028.59 1028.92 1029.31 1029.59 1029.01 1029.26 1029.86 1030.26 1030.46 1030.51 1030.51 1030.66
Wind_Speed
12 9 9 8 8 6 5 6 5 6 7 7 7 6 6 4 4 5 5 7 5 3
11 10 10 8 6 5 6 6 6 6 7 6 6 6 6 4 5 5 4 5 5 3
11 9 10 10 10 10 7 7 8 7 7 7 6 6 6 5 4 5 3 3 5 3
11 11 11 10 9 10 8 9 9 8 8 7 7 6 6 5 6 5 5 4 4 4
11 11 11 10 9 9 10 8 9 8 7 6 6 6 7 7 5 5 5 4 4 3
11 11 11 11 11 10 10 8 7 7 7 7 7 7 6 6 6 5 5 4 4 4
12 12 12 12 11 11 10 10 9 7 7 7 7 6 6 6 5 5 4 4 4 5
11 10 9 10 10 9 9 9 8 8 6 7 7 6 7 6 6 6 5 5 5 4
10 10 11 10 10 10 9 8 8 8 8 7 6 13 14 8 6 5 5 5 5 4
12 11 10 10 10 11 11 8 9 8 8 8 6 16 15 14 6 5 5 5 4 4
11 11 9 10 11 10 9 11 9 9 8 7 7 17 15 15 6 5 6 6 5 5
13 12 12 13 12 9 9 8 9 7 8 9 7 17 16 14 5 7 7 6 6 6
14 14 14 14 12 9 9 9 7 8 8 9 8 16 16 14 4 5 6 5 7 12
14 14 12 9 7 8 7 5 7 8 6 8 7 8 17 18 4 6 4 5 6 6
Wind_Direction
153 154 155 153 150 145 144 146 148 129 113 108 110 105 101 100 103 105 102 96 88 92
158 155 156 138 134 140 134 139 136 123 117 122 120 120 124 119 118 116 106 106 106 106
160 151 148 150 154 152 146 142 139 132 134 135 135 133 126 123 132 120 120 118 120 115
157 154 153 155 153 154 148 150 148 151 147 147 146 147 137 138 143 138 139 147 141 121
158 154 153 155 157 158 158 156 153 154 153 149 150 153 154 156 149 161 176 169 148 164
159 159 163 161 162 163 156 156 154 156 157 162 167 161 166 157 163 185 191 183 183 200
168 173 171 165 166 164 161 161 165 168 163 166 170 168 169 163 168 198 205 208 212 215
172 168 162 164 163 156 162 170 168 160 165 176 179 175 178 176 177 201 210 224 230 229
169 167 168 169 163 162 169 165 164 176 177 184 192 197 194 175 189 201 214 229 236 240
171 176 173 168 168 176 177 166 183 184 187 200 191 207 201 201 196 204 216 220 229 240
170 177 172 172 184 178 170 182 187 192 193 202 209 215 206 217 190 206 217 219 222 232
173 179 180 184 185 184 175 181 190 189 189 200 216 215 215 220 180 213 223 218 220 228
181 187 187 192 187 179 187 194 181 197 201 206 217 216 221 224 180 215 225 225 240 239
188 189 189 177 170 174 175 157 185 203 203 209 202 212 228 233 199 223 218 231 241 240